Simultaneous Nadir Overpasses (SNOs) Predictions

Prediction of SNOs between LANDSAT-8 and NOAA-19 Satellite Orbit:

Table of predicted SNOs for the next 14.0 days since TLE Epoch: 6/6/2015
Index Date (LANDSAT-8) Time (LANDSAT-8) Lat,Lon (LANDSAT-8) SZA (LANDSAT-8 ) Date (NOAA-19) Time (NOAA-19) Lat,Lon (NOAA-19) SZA (NOAA-19 ) Distance(km) Time Diff (sec)
1 06/08/2015 14:33:59 73.22, -37.13 50.29 06/08/2015 14:33:41 73.25, -37.14 50.32 3.58 18
2 06/08/2015 15:23:28 -73.15, 130.37 129.79 06/08/2015 15:24:34 -73.13, 130.41 129.81 3.26 66
3 06/10/2015 19:18:16 73.32,-107.98 50.21 06/10/2015 19:17:04 73.32,-108.11 50.21 4.07 72
4 06/10/2015 20:07:46 -73.21, 59.41 129.91 06/10/2015 20:07:57 -73.21, 59.42 129.91 0.45 11
5 06/13/2015 00:52:04 -73.25, -11.57 130.01 06/13/2015 00:51:19 -73.24, -11.46 130.02 3.66 45
6 06/13/2015 01:41:31 73.16, 155.89 49.90 06/13/2015 01:42:25 73.17, 155.93 49.91 1.23 54
7 06/15/2015 06:25:48 73.25, 85.00 49.87 06/15/2015 06:25:48 73.26, 84.93 49.88 2.32 0
8 06/15/2015 07:15:24 -72.82,-108.22 130.57 06/15/2015 07:16:34 -72.81,-106.80 130.57 46.83 70
9 06/17/2015 11:10:06 73.28, 13.98 49.82 06/17/2015 11:09:10 73.30, 14.02 49.84 2.93 56
10 06/17/2015 11:59:35 -73.22,-178.50 130.25 06/17/2015 12:00:03 -73.20,-178.47 130.27 2.66 28
11 06/19/2015 16:43:52 -73.29, 110.57 130.22 06/19/2015 16:43:26 -73.30, 110.50 130.22 2.37 26
